www.pogodaiklimat.ru

Погода и климат >> Архив погоды >> Кувейт >> Mitribah


ПОГОДА в Mitribah

  • Прогноз погоды в Mitribah
  • Монитор погоды в Mitribah
  • Климат города

АРХИВ ПОГОДЫ в Mitribah

Время (UTC), дата Ветер
(напр.,м/с)
 
Видим.   Явления Облачность Т
(С)
Тd
(С)
f
(%)
Тe
(С)
Тes
(С)
Комфортность P
(гПа)
Po
(гПа)
Тmin
(С)
Tmax
(С)
R
(мм)
R24
(мм)
S
(см)
12 12.07 СЗ 10-13
{16}
15 км н/о +49.4 +5.1 7 +46 +46 опасность
перегрева
993.3 993.0
15 12.07 З 13-16
{16}
5000 м дым н/о +45.3 +2.7 8 +42 +42 опасность
перегрева
993.0 993.0
18 12.07 З 11-13
{17}
1300 м дым н/о +40.5 +4.3 11 +37 +37 очень
жарко
995.1 995.0
21 12.07 З 9-11
{13}
19 км н/о +36.5 +5.9 15 +34 +34 очень
жарко
995.1 995.0 +34.1 +49.9
00 13.07 З 8-10
{13}
20 км н/о +34.0 +5.3 17 +32 +32 жарко 994.9 995.0
03 13.07 З 8-9
{10}
19 км н/о +32.4 +5.8 19 +30 +30 жарко 995.6 996.0
06 13.07 СЗ 11-13
{13}
18 км н/о +41.0 +5.9 12 +38 +38 очень
жарко
995.9 996.0
09 13.07 СЗ 11-15
{16}
14 км н/о +47.3 +5.8 9 +45 +45 опасность
перегрева
994.4 994.0
12 13.07 З 13-17
{17}
11 км дым н/о +48.3 +3.6 7 +45 +45 опасность
перегрева
993.5 994.0
15 13.07 СЗ 11-14
{17}
6000 м дым н/о +44.1 +5.1 10 +41 +41 опасность
перегрева
993.8 994.0
18 13.07 З 6-8
{17}
8000 м дым н/о +38.6 +5.4 13 +36 +36 очень
жарко
996.1 996.0
21 13.07 З 5-7
{10}
14 км н/о +35.3 +5.4 16 +33 +33 жарко 996.1 996.0 +31.4 +49.1
00 14.07 З 6-7
{10}
16 км н/о +32.1 +6.3 20 +30 +30 жарко 995.0 995.0
03 14.07 З 5-6
{7}
19 км н/о +31.3 +6.2 21 +30 +30 жарко 996.2 996.0
06 14.07 З 7-9
{10}
19 км н/о +41.7 +5.3 11 +39 +39 очень
жарко
997.0 997.0
09 14.07 З 9-13
{13}
18 км н/о +47.7 +6.5 9 +45 +45 опасность
перегрева
995.9 996.0
12 14.07 З 8-13
{14}
16 км н/о +48.0 +4.0 7 +45 +45 опасность
перегрева
994.8 995.0
15 14.07 З 8-10
{14}
20 км н/о +44.6 +0.7 7 +41 +41 опасность
перегрева
994.8 995.0
18 14.07 З 4-5
{14}
20 км н/о +37.2 -0.3 9 +33 +33 жарко 996.6 997.0
21 14.07 З 4-4
{5}
18 км н/о +33.5 +0.1 12 +30 +30 жарко 996.5 997.0 +30.1 +49.3
00 15.07 ЮЗ 4-4
{5}
19 км н/о +31.5 +0.9 14 +29 +29 жарко 996.2 996.0
03 15.07 ЮЗ 6-8
{9}
20 км н/о +29.7 +1.0 16 +27 +27 жарко 997.7 998.0
06 15.07 З 7-9
{9}
19 км н/о +43.1 +2.0 8 +40 +40 очень
жарко
997.5 998.0
09 15.07 ЮЗ 4-7
{9}
20 км н/о +45.0 +5.2 9 +42 +42 опасность
перегрева
996.7 997.0
12 15.07 ЮЗ 6-11
{12}
19 км н/о +46.3 +5.6 9 +44 +44 опасность
перегрева
995.2 995.0
15 15.07 З 7-9
{14}
19 км н/о +44.2 +4.8 9 +41 +41 опасность
перегрева
994.5 995.0
18 15.07 З 7-9
{14}
13 км н/о +39.4 +3.1 11 +36 +36 очень
жарко
996.2 996.0
21 15.07 З 4-5
{9}
17 км н/о +35.6 +5.2 15 +33 +33 жарко 996.0 996.0 +28.7 +47.4
00 16.07 З 5-6
{9}
19 км н/о +32.9 +4.9 17 +30 +30 жарко 995.8 996.0
03 16.07 З 6-8
{9}
20 км н/о +33.1 +3.0 15 +30 +30 жарко 996.6 997.0
06 16.07 З 9-12
{12}
19 км н/о +42.5 +1.8 8 +39 +39 очень
жарко
996.5 997.0
09 16.07 З 9-13
{14}
18 км н/о +47.1 +7.0 9 +45 +45 опасность
перегрева
995.8 996.0
12 16.07 ЮЗ 10-17
{17}
8000 м дым н/о +45.5 +5.3 9 +43 +43 опасность
перегрева
994.7 995.0
15 16.07 З 9-11
{17}
19 км н/о +43.1 +5.5 10 +40 +40 очень
жарко
994.5 995.0
18 16.07 З 7-9
{17}
15 км н/о +38.5 +7.0 15 +36 +36 очень
жарко
996.4 996.0
21 16.07 З 5-6
{10}
15 км н/о +34.7 +9.2 21 +33 +33 жарко 996.6 997.0 +31.7 +47.8
00 17.07 З 5-6
{10}
20 км н/о +31.8 +7.7 22 +30 +30 жарко 996.0 996.0
03 17.07 З 7-8
{9}
20 км н/о +31.7 +7.9 23 +31 +31 жарко 996.9 997.0
06 17.07 З 10-13
{13}
10 км н/о +40.6 +8.1 14 +38 +38 очень
жарко
997.0 997.0
09 17.07 СЗ 9-14
{17}
13 км н/о +43.8 +8.3 12 +42 +42 опасность
перегрева
996.1 996.0
12 17.07 СЗ 10-13
{17}
8000 м дым н/о +43.9 +4.6 9 +41 +41 опасность
перегрева
995.0 995.0
15 17.07 СЗ 11-14
{15}
2500 м дым н/о +41.0 +5.9 12 +38 +38 очень
жарко
995.0 995.0
18 17.07 З 5-7
{15}
20 км н/о +36.1 +5.5 15 +33 +33 жарко 996.6 997.0
21 17.07 З 5-7
{8}
15 км н/о +33.0 +6.0 19 +31 +31 жарко 996.8 997.0 +31.0 +45.6
00 18.07 ЮЗ 6-7
{8}
15 км н/о +29.3 +4.3 20 +27 +27 жарко 996.4 996.0
03 18.07 З 7-9
{10}
8000 м дымка н/о +30.6 +3.1 17 +28 +28 жарко 997.5 998.0
06 18.07 З 10-12
{13}
8000 м дым н/о +40.3 +3.5 10 +37 +37 очень
жарко
997.4 997.0
09 18.07 З 9-15
{16}
11 км н/о +43.6 +4.7 10 +41 +41 опасность
перегрева
996.7 997.0
12 18.07 З 5-9
{16}
18 км н/о +45.5 +4.5 9 +43 +43 опасность
перегрева
995.2 995.0
18 18.07 З 4-6
{10}
13 км н/о +36.7 +5.2 14 +34 +34 очень
жарко
997.0 997.0
21 18.07 Ю 5-6
{6}
18 км н/о +32.5 +3.6 16 +30 +30 жарко 997.2 997.0 +28.7 +45.8
00 19.07 Ю 5-5
{6}
6000 м дым н/о +30.4 +2.4 17 +28 +28 жарко 997.0 997.0
03 19.07 ЮЗ 6-6
{7}
8000 м дымка н/о +29.2 +3.0 19 +27 +27 жарко 997.9 998.0
06 19.07 З 6-8
{8}
19 км н/о +41.0 +5.5 12 +38 +38 очень
жарко
998.0 998.0
09 19.07 З 5-8
{10}
18 км н/о +46.4 +7.1 10 +44 +44 опасность
перегрева
997.1 997.0

 

Местоположение метеостанции Mitribah (Кувейт): широта 29.82 долгота 47.37 высота над уровнем моря 119 м.

В архиве по умолчанию представлена погода в Mitribah за последнюю неделю. Архивные данные за месяц целиком и за предыдущие месяцы, начиная с января 2011 года, Вы можете получить, выбрав интересующий диапазон дат из раскрывающегося списка и нажав кнопку "Ввод!".


*Определитесь, кто Вы:
робот инопланетянин человек

Внимание! Время в таблицах - всемирное. Для получения местного времени необходимо прибавить поправку, которая в Mitribah равна 3 ч.

Смотрите также архив погоды в соседних городах и на ближайших метеорологических станциях:

Погода в Jal Aliyah (Кувейт) (31 км)
Погода в Abdaly (Кувейт) (43 км)
Погода в Sabriyah (Кувейт) (47 км)
Погода в Jahra (Кувейт) (63 км)
Погода в Abraque Al Habari (Кувейт) (68 км)
Погода в Sulaibiya (Кувейт) (70 км)
Погода в Experimental Farm (Кувейт) (81 км)
Погода в Minagish (Кувейт) (85 км)
Погода в Kuwait City (Кувейт) (85 км)
Погода в Basrah Airport (Ирак) (87 км)

Пояснения к столбцам:

Ветер - указаны скорость ветра в м/с - средняя за 10 мин, порывы в срок и между сроками (в фигурных скобках) и направление, откуда дует ветер: С - северный, СВ - северо-восточный, В - восточный, ЮВ - юго-восточный, Ю - южный, ЮЗ - юго-западный, З - западный, СЗ - северо-западный.
Видимость - горизонтальная дальность видимости в метрах или километрах. При видимости от 1 до 10 км при отсутствии осадков обычно наблюдается дымка, при ухудшении видимости до 1 км и менее - туман. В сухую погоду видимость может ухудшаться дымом, пылью или мглою.
Явления - указаны атмосферные явления, наблюдавшиеся в срок или в последний час перед сроком; фигурными скобками обозначены явления, наблюдавшиеся между сроками (за 1-3 часа до срока); квадратными скобками обозначены град или гололедные отложения с указанием их диаметра в мм.
Облачность - указаны через наклонную черту общая и нижняя облачность в баллах и высота нижней границы облаков в метрах; квадратными скобками обозначены формы облаков: Ci - перистые, Cs - перисто-слоистые, Cc - перисто-кучевые, Ac - высококучевые, As - высокослоистые, Sc - слоисто-кучевые, Ns - слоисто-дождевые, Cu - кучевые, Cb - кучево-дождевые. Подробнее классификацию облаков см. в Атласе облаков (PDF).
T - Температура воздуха - температура, измеренная на высоте 2 м над землей.
Td - Температура точки росы - температура, при понижении до которой содержащийся в воздухе водяной пар достигнет насыщения.
f - Относительная влажность воздуха - влажноcть воздуха, измеренная на высоте 2 м над землей.
Te - Эффективная температура - температура, которую ощущает одетый по сезону человек в тени. Характеристика душности погоды. При расчете учитывается влияние влажности воздуха и скорости ветра на теплоощущения человека.
Tes - Эффективная температура на солнце - температура, которую ощущает человек, с поправкой на солнечный нагрев. Характеристика знойности погоды. Зависит от высоты солнца над горизонтом, облачности и скорости ветра. Ночью, в пасмурную погоду, а также при ветре 12 м/с и более поправка равна нулю.
P - Атмосферное давление - приведенное к уровню моря атмосферное давление.
Po - Атмосферное давление - измеренное на уровне метеостанции атмосферное давление.
Tmin - Минимальная температура - минимум температуры воздуха на высоте 2 м над землей.
Tmax - Максимальная температура - максимум температуры воздуха на высоте 2 м над землей.
R - Количество осадков - Количество выпавших осадков за период времени, мм. При наведении курсора мыши на число - период времени, за который выпало указанное количество осадков.
R24 - Количество осадков - Количество выпавших осадков за 24 часа, мм.
S - Снежный покров - Высота снежного покрова, см. При наведении курсора мыши на число - состояние снежного покрова и степень покрытия местности в баллах.